Temp
14 14 14 13 13 13 12 12 12 11 11 10 10 9 9 8 8 7 7 6 6 5 5 4 4 4 3 3 3 3 2 2 2 1 1 1 1 0 0 0 -0 -0 -1 -1 -1 -1 -2 -2 -2 -2 -2 -2 -3 -3 -3 -3 -4 -4 -5 -5 -5 -5 -6 -6 -6 -6 -6 -6 -7
14 14 14 13 13 12 12 12 12 11 11 10 10 10 9 8 8 7 7 6 6 5 5 4 4 4 3 3 3 2 2 2 2 1 1 1 1 0 0 0 -0 -0 -1 -1 -1 -1 -2 -2 -2 -2 -2 -2 -2 -3 -3 -3 -4 -4 -5 -5 -5 -5 -6 -6 -6 -6 -6 -6 -7
14 14 14 13 13 13 12 12 12 12 11 11 11 10 9 8 8 7 7 6 6 5 4 4 4 3 3 3 3 2 2 2 1 1 1 1 1 0 0 0 -0 -0 -1 -1 -1 -1 -2 -2 -2 -2 -2 -2 -2 -3 -3 -3 -4 -4 -5 -5 -5 -5 -6 -6 -6 -6 -6 -6 -6
15 14 14 14 13 13 13 13 12 12 11 11 10 10 9 8 8 7 7 6 5 5 4 4 3 3 3 3 2 2 2 2 1 1 1 1 1 0 0 0 -0 -0 -1 -1 -1 -1 -2 -2 -2 -2 -2 -2 -2 -3 -3 -3 -4 -4 -5 -5 -5 -5 -6 -6 -6 -6 -6 -6 -6
15 14 14 14 14 13 13 12 12 11 11 10 9 9 8 8 7 7 6 6 5 5 4 4 3 3 3 3 2 2 2 2 1 1 1 1 1 0 0 -0 -0 -1 -1 -1 -1 -1 -2 -2 -2 -2 -2 -2 -2 -3 -3 -3 -4 -4 -4 -5 -5 -5 -5 -6 -6 -6 -6 -6 -6
14 14 14 14 13 13 12 11 11 10 10 9 9 8 8 8 7 6 6 6 5 5 4 4 3 3 3 2 2 2 2 1 1 1 1 1 1 0 0 -0 -0 -1 -1 -1 -1 -2 -2 -2 -2 -2 -2 -2 -2 -3 -3 -4 -4 -4 -4 -5 -5 -5 -5 -6 -6 -6 -6 -6 -6
13 13 13 13 13 12 12 11 11 10 9 9 9 8 8 8 7 6 6 5 5 4 4 3 3 3 2 2 2 2 2 1 1 1 1 1 1 0 0 -0 -0 -1 -1 -1 -1 -2 -2 -2 -2 -2 -2 -2 -2 -2 -3 -3 -4 -4 -4 -5 -5 -5 -5 -6 -6 -6 -6 -6 -6
11 11 11 12 12 11 11 11 10 10 9 9 9 8 8 7 7 6 6 5 4 4 4 3 3 3 2 2 2 2 2 1 1 1 1 1 1 0 0 -0 -0 -1 -1 -1 -1 -2 -2 -2 -2 -2 -2 -2 -2 -2 -3 -3 -4 -4 -4 -4 -5 -5 -5 -5 -6 -6 -6 -6 -6
10 10 11 11 11 11 11 10 10 10 9 9 9 8 8 7 7 6 5 5 4 4 3 3 3 2 2 2 2 2 1 1 1 1 1 1 1 0 0 -0 -0 -1 -1 -1 -1 -2 -2 -2 -2 -2 -2 -2 -2 -2 -3 -3 -4 -4 -4 -4 -5 -5 -5 -5 -6 -6 -6 -6 -6
10 10 10 10 10 10 10 10 9 9 9 9 8 8 7 7 6 6 5 4 4 3 3 3 2 2 2 2 2 2 1 1 1 1 1 1 0 0 -0 -0 -0 -1 -1 -1 -1 -2 -2 -2 -2 -2 -2 -2 -2 -3 -3 -3 -4 -4 -4 -4 -4 -5 -5 -5 -5 -6 -6 -6 -6
10 9 9 9 9 9 9 9 9 8 8 8 8 8 7 7 6 6 5 4 4 3 3 2 2 2 2 2 2 1 1 1 1 1 1 1 0 0 -0 -0 -0 -1 -1 -1 -1 -2 -2 -2 -2 -2 -2 -2 -2 -3 -3 -3 -3 -4 -4 -4 -4 -5 -5 -5 -5 -6 -6 -6 -6
9 9 8 8 8 8 8 8 8 8 8 8 7 7 7 7 6 6 5 4 4 3 3 2 2 2 2 2 1 1 1 1 1 1 1 0 0 0 -0 -0 -1 -1 -1 -1 -1 -2 -2 -2 -2 -2 -2 -2 -2 -3 -3 -3 -3 -4 -4 -4 -4 -4 -5 -5 -5 -6 -6 -6 -6
9 8 8 8 7 7 7 7 7 7 7 7 7 7 7 7 6 6 5 4 4 3 3 2 2 2 1 1 1 1 1 1 1 1 0 0 0 -0 -0 -0 -1 -1 -1 -1 -1 -2 -2 -2 -2 -2 -2 -2 -2 -3 -3 -3 -3 -3 -4 -4 -4 -4 -5 -5 -5 -6 -6 -6 -6
9 8 8 7 7 7 6 6 6 6 6 7 7 7 6 6 6 6 5 5 4 3 3 2 2 1 1 1 1 1 1 1 1 0 0 0 0 -0 -0 -0 -1 -1 -1 -1 -1 -2 -2 -2 -2 -2 -2 -2 -2 -3 -3 -3 -3 -3 -4 -4 -4 -4 -4 -5 -5 -6 -6 -6 -7
9 9 8 7 7 6 6 6 6 6 6 6 6 6 6 6 6 5 5 5 4 3 3 2 2 1 1 1 1 1 1 1 0 0 0 0 -0 -0 -0 -0 -1 -1 -1 -1 -2 -2 -2 -2 -2 -2 -2 -2 -2 -3 -3 -3 -3 -3 -3 -4 -4 -4 -4 -5 -5 -6 -6 -6 -7
10 9 9 8 7 7 7 6 6 6 6 6 6 6 6 6 5 5 5 4 4 3 3 2 2 1 1 1 1 1 1 0 0 0 0 -0 -0 -0 -0 -0 -1 -1 -1 -2 -2 -2 -2 -2 -2 -2 -2 -2 -3 -3 -3 -3 -3 -3 -3 -4 -4 -4 -4 -5 -5 -6 -6 -6 -7
11 10 9 9 8 8 7 7 7 6 6 6 6 6 5 5 5 5 5 4 4 3 3 2 2 1 1 1 1 0 0 0 0 0 -0 -0 -0 -0 -0 -0 -1 -1 -1 -2 -2 -2 -2 -2 -2 -2 -2 -2 -3 -3 -3 -3 -3 -3 -3 -3 -4 -4 -4 -5 -5 -6 -6 -6 -6
11 10 10 9 9 8 8 7 7 6 6 6 5 5 5 5 5 5 4 4 4 3 3 3 2 2 1 1 1 0 0 0 0 -0 -0 -0 -0 -0 -0 -0 -1 -1 -2 -2 -2 -2 -2 -2 -2 -2 -2 -2 -2 -3 -3 -3 -3 -3 -3 -3 -4 -4 -4 -5 -5 -6 -6 -6 -6
11 10 10 9 9 8 8 7 6 6 5 5 5 4 4 4 4 4 4 4 3 3 3 2 2 2 1 1 0 0 0 0 0 -0 -0 -1 -1 -0 -0 -1 -1 -1 -2 -2 -3 -3 -3 -2 -2 -2 -2 -2 -2 -3 -3 -3 -3 -3 -3 -3 -4 -4 -4 -5 -5 -6 -6 -6 -6
11 10 10 9 9 8 7 7 6 5 5 4 4 4 4 4 4 3 3 3 3 3 3 2 2 2 1 1 0 0 0 0 -0 -0 -1 -1 -1 -1 -1 -1 -1 -2 -2 -3 -3 -3 -3 -2 -2 -2 -2 -2 -2 -3 -3 -3 -3 -3 -3 -3 -4 -4 -4 -5 -5 -6 -6 -6 -6
10 10 9 9 8 8 7 7 6 5 4 4 3 3 3 3 3 3 3 3 3 2 2 2 2 2 1 1 1 0 0 -0 -0 -1 -1 -1 -1 -1 -1 -1 -1 -2 -3 -3 -3 -3 -3 -3 -2 -2 -2 -2 -2 -3 -3 -3 -3 -3 -3 -3 -4 -4 -4 -5 -5 -5 -6 -6 -6
10 10 9 9 8 8 7 6 6 5 4 4 3 3 3 3 3 3 3 2 2 2 2 2 2 1 1 1 1 0 -0 -0 -1 -1 -1 -1 -1 -1 -1 -1 -2 -2 -3 -3 -3 -3 -3 -3 -2 -2 -2 -2 -3 -3 -3 -3 -3 -3 -3 -4 -4 -4 -4 -5 -5 -5 -6 -6 -6
10 9 9 8 8 7 7 6 6 5 5 4 4 3 3 3 2 2 2 2 2 2 2 2 1 1 1 1 1 0 -0 -1 -1 -1 -2 -2 -2 -1 -1 -1 -2 -3 -3 -3 -3 -3 -3 -3 -2 -2 -2 -2 -3 -3 -3 -3 -3 -4 -4 -4 -4 -4 -4 -5 -5 -5 -6 -6 -6
9 9 8 8 7 7 6 6 6 5 5 4 4 3 3 2 2 2 2 2 2 2 2 1 1 1 1 1 0 -0 -1 -1 -1 -2 -2 -2 -2 -2 -1 -2 -2 -3 -3 -3 -3 -3 -3 -3 -3 -2 -2 -3 -3 -3 -3 -4 -4 -4 -4 -4 -4 -4 -4 -5 -5 -5 -6 -6 -6
9 8 8 7 7 6 6 6 5 5 5 4 4 3 2 2 2 2 2 2 2 2 2 1 1 1 1 0 -0 -1 -1 -2 -2 -2 -2 -2 -2 -2 -2 -2 -3 -3 -3 -3 -3 -3 -3 -3 -3 -3 -3 -3 -3 -4 -4 -4 -4 -4 -4 -4 -4 -4 -4 -5 -5 -5 -6 -6 -6
9 8 8 7 6 6 6 6 5 5 4 4 3 3 2 2 2 1 2 2 2 2 2 1 1 1 0 -0 -1 -1 -1 -2 -2 -2 -2 -2 -2 -2 -2 -2 -3 -3 -3 -3 -3 -4 -4 -3 -3 -3 -3 -4 -4 -4 -4 -4 -4 -4 -4 -4 -4 -4 -5 -5 -5 -5 -5 -5 -6
9 8 8 7 7 7 6 6 5 5 5 4 4 3 3 2 2 1 1 2 2 2 1 1 1 0 -0 -1 -1 -1 -2 -2 -2 -2 -3 -3 -2 -2 -2 -2 -3 -3 -3 -3 -4 -4 -4 -4 -3 -3 -3 -4 -4 -4 -4 -4 -4 -4 -4 -4 -4 -4 -4 -4 -4 -4 -5 -5 -5
9 9 8 8 8 8 7 7 6 6 6 5 5 4 3 2 2 2 1 2 2 2 1 1 0 -0 -1 -1 -1 -1 -2 -2 -2 -2 -3 -3 -3 -2 -2 -2 -3 -3 -3 -3 -4 -4 -4 -4 -4 -4 -4 -4 -4 -4 -4 -4 -4 -4 -4 -4 -4 -3 -3 -4 -4 -4 -5 -5 -5
10 10 9 9 9 9 8 8 8 7 7 7 6 5 4 3 3 2 2 2 2 1 1 1 0 -0 -1 -1 -1 -1 -2 -2 -2 -3 -3 -3 -3 -3 -2 -2 -3 -3 -3 -4 -4 -4 -4 -4 -4 -4 -4 -4 -4 -4 -4 -4 -4 -4 -4 -4 -4 -4 -4 -4 -4 -5 -5 -6 -6
10 10 10 9 9 9 9 9 9 9 8 7 7 7 6 5 4 3 3 2 2 2 1 0 -0 -1 -1 -1 -1 -2 -2 -2 -2 -3 -3 -3 -3 -3 -2 -2 -3 -3 -3 -4 -4 -4 -4 -4 -4 -4 -5 -5 -5 -5 -5 -4 -4 -4 -4 -4 -4 -4 -5 -5 -5 -6 -6 -6 -7
10 10 10 9 9 9 9 9 10 9 9 8 8 7 7 6 5 4 4 3 2 1 0 -0 -1 -1 -1 -2 -2 -2 -2 -2 -2 -3 -3 -3 -3 -3 -2 -2 -3 -3 -4 -4 -4 -4 -4 -4 -4 -4 -5 -5 -5 -5 -5 -5 -5 -5 -4 -4 -5 -5 -5 -5 -6 -6 -6 -7 -7
10 10 10 10 10 10 9 9 9 9 9 9 8 7 7 7 6 5 4 3 2 1 -0 -1 -1 -1 -2 -2 -2 -2 -2 -2 -3 -3 -3 -3 -3 -3 -3 -3 -3 -3 -4 -4 -4 -4 -4 -5 -5 -4 -5 -5 -5 -5 -5 -5 -5 -5 -5 -5 -5 -5 -5 -5 -6 -6 -6 -7 -7
9 9 9 9 10 10 9 9 8 8 8 8 8 8 7 7 7 6 5 3 2 1 -0 -1 -1 -1 -2 -2 -2 -3 -3 -3 -3 -3 -3 -3 -3 -3 -3 -3 -3 -4 -4 -4 -4 -4 -4 -4 -4 -4 -5 -5 -5 -5 -5 -5 -5 -5 -5 -5 -5 -5 -5 -5 -6 -6 -6 -7 -7
8 8 8 9 9 9 8 8 7 7 7 7 8 8 8 7 7 6 5 4 2 1 0 -0 -1 -1 -2 -2 -2 -3 -3 -3 -3 -3 -3 -3 -3 -3 -3 -3 -3 -4 -4 -4 -4 -4 -4 -4 -4 -4 -5 -5 -5 -5 -5 -5 -5 -5 -5 -4 -5 -5 -5 -5 -6 -6 -6 -7 -7
7 7 7 7 7 7 7 7 7 6 6 6 6 7 7 7 6 5 4 3 2 1 0 -1 -1 -2 -2 -2 -3 -3 -3 -3 -3 -3 -3 -3 -4 -4 -3 -3 -4 -4 -4 -4 -4 -4 -4 -4 -4 -4 -5 -5 -5 -5 -5 -5 -5 -5 -5 -4 -5 -5 -5 -5 -5 -6 -6 -6 -6
6 6 6 6 6 6 6 6 5 5 5 4 5 5 5 5 4 4 3 2 1 0 -0 -1 -1 -2 -2 -2 -3 -3 -3 -3 -3 -3 -3 -4 -4 -4 -4 -4 -4 -4 -4 -4 -4 -4 -4 -4 -4 -4 -5 -5 -5 -5 -5 -5 -5 -5 -4 -4 -5 -5 -5 -5 -5 -5 -6 -6 -6
6 6 6 5 5 5 5 5 4 4 4 3 3 3 4 3 3 3 2 2 1 1 0 -0 -1 -1 -1 -2 -2 -2 -3 -3 -3 -3 -3 -3 -4 -4 -4 -4 -4 -4 -4 -4 -4 -4 -4 -4 -4 -4 -5 -5 -5 -5 -5 -5 -4 -4 -4 -4 -4 -4 -5 -5 -5 -5 -5 -6 -6
6 6 5 5 5 5 5 4 4 4 3 3 3 3 3 3 3 3 2 2 1 1 0 -0 -1 -1 -1 -1 -2 -2 -2 -3 -3 -3 -3 -3 -4 -4 -4 -4 -4 -4 -4 -4 -4 -4 -4 -4 -4 -4 -5 -5 -5 -5 -5 -4 -4 -4 -4 -4 -4 -4 -5 -5 -5 -5 -5 -5 -6
6 6 6 5 5 5 5 5 4 4 4 3 3 3 3 3 3 3 2 2 2 1 0 -0 -1 -1 -1 -2 -2 -2 -3 -3 -3 -3 -3 -3 -4 -4 -4 -4 -4 -4 -4 -4 -4 -4 -4 -4 -4 -4 -5 -5 -5 -5 -4 -4 -4 -4 -4 -4 -4 -4 -4 -4 -5 -5 -5 -5 -6
7 6 6 6 6 5 5 5 5 5 4 4 3 3 3 3 2 2 2 1 1 1 0 -0 -1 -1 -2 -2 -3 -3 -3 -3 -3 -3 -3 -4 -4 -4 -4 -4 -4 -4 -4 -4 -4 -4 -4 -4 -4 -4 -5 -5 -5 -5 -4 -4 -4 -4 -4 -4 -4 -4 -4 -4 -5 -5 -5 -5 -6
7 7 6 6 6 6 5 5 5 5 4 4 3 3 2 2 1 1 1 1 1 0 0 -0 -1 -2 -2 -3 -3 -3 -3 -3 -3 -3 -4 -4 -4 -4 -4 -4 -4 -4 -4 -4 -4 -4 -4 -4 -4 -4 -4 -5 -5 -5 -4 -4 -4 -4 -4 -4 -4 -4 -4 -4 -5 -5 -5 -5 -6
Height
1463 1463 1463 1463 1462 1462 1462 1462 1462 1462 1462 1462 1462 1463 1464 1464 1465 1465 1466 1467 1468 1469 1471 1472 1474 1476 1478 1479 1480 1481 1481 1482 1483 1483 1484 1484 1485 1485 1486 1486 1487 1487 1487 1488 1488 1488 1488 1488 1488 1488 1488 1488 1488 1487 1487 1487 1487 1487 1487 1487 1486 1486 1486 1486 1485 1485 1485 1484 1483
1459 1459 1459 1459 1459 1459 1459 1458 1458 1459 1459 1459 1459 1459 1460 1461 1461 1462 1463 1463 1464 1466 1468 1469 1471 1473 1474 1476 1477 1478 1479 1479 1480 1480 1481 1481 1482 1483 1483 1484 1484 1484 1485 1485 1485 1485 1485 1486 1486 1486 1485 1485 1485 1485 1485 1485 1485 1485 1484 1484 1484 1484 1484 1483 1483 1483 1483 1482 1481
1456 1456 1456 1455 1455 1455 1455 1454 1454 1455 1455 1455 1456 1457 1457 1458 1458 1459 1459 1460 1462 1463 1465 1466 1468 1470 1471 1473 1474 1475 1475 1476 1477 1477 1478 1479 1479 1480 1480 1481 1481 1482 1482 1483 1483 1483 1483 1483 1483 1483 1483 1483 1483 1483 1482 1483 1483 1483 1482 1482 1482 1482 1481 1481 1481 1481 1480 1480 1479
1453 1453 1452 1452 1451 1451 1451 1451 1452 1452 1453 1453 1454 1454 1454 1455 1455 1456 1456 1457 1459 1460 1461 1463 1465 1467 1468 1469 1471 1472 1473 1473 1474 1474 1475 1475 1476 1477 1478 1478 1479 1479 1480 1480 1480 1480 1480 1481 1481 1481 1481 1480 1480 1480 1480 1480 1480 1480 1480 1480 1479 1479 1479 1479 1479 1479 1478 1477 1477
1449 1449 1449 1449 1449 1449 1449 1449 1449 1449 1450 1450 1451 1451 1451 1452 1452 1453 1454 1454 1455 1456 1458 1460 1462 1464 1465 1466 1468 1469 1469 1470 1471 1471 1472 1473 1473 1474 1475 1476 1476 1477 1477 1478 1478 1478 1478 1478 1478 1478 1478 1478 1478 1478 1478 1478 1478 1478 1478 1477 1477 1477 1477 1477 1476 1476 1476 1475 1474
1445 1445 1446 1446 1446 1446 1446 1447 1447 1447 1447 1448 1448 1448 1448 1449 1449 1450 1450 1451 1452 1453 1455 1457 1459 1460 1462 1463 1464 1465 1466 1467 1468 1468 1469 1469 1470 1471 1472 1473 1474 1474 1474 1475 1475 1475 1475 1476 1476 1476 1476 1476 1476 1476 1476 1476 1475 1475 1475 1475 1474 1474 1474 1474 1474 1474 1473 1473 1472
1442 1442 1443 1443 1443 1444 1444 1444 1444 1444 1444 1444 1444 1445 1445 1446 1447 1447 1448 1449 1450 1451 1453 1454 1456 1457 1458 1460 1461 1463 1463 1464 1464 1465 1466 1467 1468 1469 1469 1470 1471 1472 1472 1472 1473 1473 1473 1473 1473 1473 1473 1474 1473 1473 1473 1473 1473 1473 1473 1472 1472 1472 1472 1472 1472 1471 1471 1470 1470
1439 1439 1439 1440 1440 1440 1441 1441 1441 1441 1441 1441 1442 1442 1443 1444 1444 1445 1446 1447 1448 1449 1450 1451 1453 1454 1456 1457 1459 1459 1460 1461 1461 1462 1463 1464 1465 1466 1467 1468 1469 1469 1469 1470 1470 1470 1470 1470 1471 1471 1471 1471 1471 1471 1471 1471 1471 1470 1470 1470 1470 1469 1469 1469 1469 1469 1469 1468 1468
1436 1436 1436 1437 1437 1438 1438 1438 1438 1438 1438 1439 1439 1440 1440 1441 1442 1443 1444 1444 1444 1446 1447 1449 1450 1452 1453 1455 1456 1457 1458 1458 1459 1459 1460 1462 1463 1464 1464 1465 1466 1466 1467 1467 1468 1468 1468 1468 1468 1469 1469 1469 1469 1469 1469 1469 1468 1468 1468 1468 1467 1467 1467 1467 1467 1466 1466 1466 1465
1433 1433 1433 1434 1434 1434 1435 1435 1435 1435 1435 1436 1436 1437 1438 1439 1439 1440 1440 1441 1443 1444 1445 1446 1448 1449 1451 1452 1453 1454 1455 1455 1456 1457 1458 1459 1460 1461 1462 1462 1463 1464 1464 1465 1465 1465 1465 1465 1466 1466 1466 1466 1466 1466 1466 1466 1466 1465 1465 1465 1465 1465 1464 1464 1464 1464 1464 1463 1463
1430 1430 1430 1430 1430 1431 1431 1431 1432 1432 1432 1433 1433 1434 1435 1435 1436 1437 1438 1439 1440 1441 1442 1443 1445 1446 1448 1449 1450 1451 1452 1453 1454 1454 1455 1456 1457 1458 1459 1460 1461 1461 1462 1462 1463 1463 1463 1463 1463 1464 1464 1464 1464 1464 1464 1463 1463 1463 1463 1463 1463 1462 1462 1462 1462 1461 1461 1460 1460
1427 1427 1427 1427 1427 1427 1428 1428 1428 1428 1429 1429 1430 1431 1432 1432 1433 1434 1435 1436 1437 1438 1439 1440 1442 1444 1445 1447 1448 1449 1450 1450 1451 1452 1453 1454 1455 1456 1457 1457 1458 1459 1459 1460 1460 1460 1460 1460 1461 1461 1461 1461 1461 1461 1461 1461 1461 1460 1460 1460 1460 1460 1459 1459 1459 1459 1459 1458 1457
1425 1424 1424 1424 1424 1424 1424 1424 1424 1425 1425 1426 1427 1428 1429 1429 1430 1431 1432 1433 1434 1435 1436 1438 1439 1441 1443 1444 1445 1446 1447 1448 1449 1449 1450 1451 1452 1453 1454 1455 1456 1456 1457 1457 1458 1458 1458 1458 1458 1459 1459 1459 1459 1459 1459 1458 1458 1458 1458 1458 1458 1457 1457 1457 1457 1457 1456 1455 1455
1423 1422 1421 1421 1421 1421 1421 1421 1421 1422 1423 1423 1424 1425 1426 1427 1427 1428 1429 1430 1431 1432 1433 1434 1436 1438 1439 1441 1443 1444 1444 1445 1446 1447 1448 1449 1450 1451 1451 1452 1453 1454 1454 1455 1455 1455 1455 1455 1456 1456 1456 1456 1456 1456 1456 1456 1456 1455 1455 1455 1455 1455 1455 1454 1454 1454 1454 1453 1452
1420 1419 1419 1418 1418 1418 1418 1418 1418 1419 1420 1420 1421 1423 1423 1424 1424 1425 1426 1427 1428 1429 1430 1431 1433 1434 1436 1438 1440 1441 1442 1443 1443 1444 1445 1446 1447 1448 1449 1449 1450 1451 1452 1452 1452 1452 1453 1453 1454 1454 1454 1454 1454 1454 1453 1453 1453 1453 1453 1453 1453 1452 1452 1452 1452 1452 1451 1450 1450
1417 1416 1416 1415 1415 1415 1415 1415 1415 1416 1417 1418 1419 1420 1420 1421 1422 1422 1423 1424 1425 1426 1427 1428 1429 1431 1433 1435 1437 1438 1439 1439 1440 1441 1442 1443 1444 1445 1446 1446 1447 1448 1449 1449 1449 1450 1450 1451 1451 1451 1451 1451 1451 1451 1451 1451 1451 1451 1450 1450 1450 1450 1450 1450 1449 1449 1449 1448 1447
1414 1414 1413 1413 1412 1412 1412 1412 1413 1413 1414 1414 1416 1417 1417 1418 1419 1419 1420 1421 1422 1423 1424 1425 1426 1428 1430 1432 1434 1435 1435 1436 1437 1438 1439 1439 1441 1442 1443 1443 1444 1445 1446 1446 1447 1447 1448 1448 1449 1449 1449 1449 1449 1449 1449 1449 1449 1448 1448 1448 1448 1448 1447 1447 1447 1447 1446 1445 1445
1412 1411 1411 1410 1409 1409 1409 1409 1410 1410 1411 1412 1413 1414 1414 1415 1416 1416 1417 1418 1419 1420 1421 1422 1424 1425 1427 1428 1430 1431 1432 1433 1434 1434 1435 1437 1438 1439 1439 1440 1441 1442 1443 1444 1444 1444 1445 1446 1446 1446 1446 1446 1446 1446 1446 1446 1446 1446 1446 1445 1445 1445 1445 1444 1444 1444 1443 1443 1442
1410 1409 1409 1408 1408 1407 1407 1407 1408 1408 1409 1409 1410 1411 1411 1412 1413 1414 1414 1415 1416 1417 1419 1419 1421 1422 1423 1425 1427 1428 1429 1430 1431 1432 1433 1434 1435 1436 1437 1438 1439 1439 1440 1440 1441 1442 1443 1443 1443 1443 1443 1443 1443 1444 1444 1444 1444 1444 1443 1443 1443 1443 1442 1442 1442 1441 1441 1440 1439
1408 1408 1407 1406 1406 1405 1405 1405 1405 1406 1406 1407 1408 1408 1409 1409 1410 1411 1412 1412 1414 1415 1416 1417 1418 1419 1420 1422 1423 1425 1426 1427 1428 1429 1430 1431 1432 1433 1434 1435 1436 1436 1437 1438 1438 1439 1440 1440 1440 1440 1440 1440 1441 1441 1441 1441 1441 1441 1441 1441 1440 1440 1440 1439 1439 1439 1438 1438 1437
1406 1406 1405 1404 1404 1404 1404 1404 1404 1404 1404 1405 1405 1406 1406 1407 1408 1408 1409 1410 1411 1412 1413 1414 1414 1415 1417 1418 1420 1421 1423 1424 1425 1426 1426 1428 1429 1430 1431 1432 1433 1433 1434 1434 1435 1436 1437 1438 1438 1438 1438 1438 1438 1439 1439 1439 1439 1439 1439 1438 1438 1438 1437 1437 1436 1436 1435 1435 1434
1405 1404 1403 1403 1402 1402 1402 1402 1402 1402 1402 1403 1403 1404 1404 1404 1405 1406 1407 1408 1409 1409 1410 1411 1412 1413 1414 1415 1417 1419 1420 1421 1422 1422 1423 1424 1425 1427 1428 1429 1429 1430 1431 1432 1433 1433 1434 1435 1435 1435 1435 1435 1436 1436 1436 1436 1436 1436 1436 1436 1435 1435 1435 1434 1434 1433 1433 1432 1432
1403 1402 1402 1401 1401 1400 1400 1400 1400 1400 1400 1401 1401 1401 1402 1402 1403 1403 1404 1405 1406 1406 1407 1408 1409 1410 1411 1412 1414 1416 1417 1418 1418 1419 1419 1421 1422 1424 1425 1425 1426 1427 1428 1429 1429 1430 1431 1432 1432 1433 1433 1433 1433 1434 1434 1434 1434 1434 1434 1433 1433 1433 1432 1432 1431 1430 1430 1430 1429
1401 1401 1400 1400 1399 1399 1399 1399 1399 1399 1399 1399 1399 1399 1399 1400 1400 1401 1401 1402 1403 1403 1404 1405 1406 1407 1409 1410 1411 1413 1414 1414 1414 1415 1416 1417 1419 1420 1421 1422 1423 1424 1424 1426 1427 1428 1429 1429 1430 1430 1430 1431 1431 1431 1431 1431 1431 1431 1431 1431 1430 1430 1429 1429 1429 1428 1428 1427 1427
1400 1399 1399 1398 1398 1398 1398 1397 1397 1397 1397 1397 1398 1398 1398 1398 1398 1398 1399 1399 1400 1401 1402 1403 1404 1405 1406 1407 1408 1408 1409 1409 1410 1411 1413 1414 1416 1417 1418 1419 1419 1421 1422 1423 1424 1425 1426 1427 1427 1428 1428 1428 1428 1429 1429 1429 1429 1429 1429 1428 1428 1427 1427 1426 1426 1426 1425 1425 1425
1399 1398 1397 1397 1397 1396 1396 1396 1396 1396 1396 1396 1396 1396 1396 1396 1396 1396 1396 1396 1397 1398 1399 1400 1401 1402 1402 1403 1404 1404 1404 1405 1406 1408 1409 1411 1412 1414 1415 1415 1417 1418 1419 1421 1422 1423 1424 1424 1425 1425 1425 1426 1426 1426 1426 1426 1426 1426 1426 1426 1425 1425 1424 1424 1424 1423 1423 1423 1422
1397 1396 1396 1396 1395 1395 1394 1394 1394 1394 1394 1394 1394 1394 1394 1394 1394 1394 1394 1394 1394 1395 1396 1397 1398 1398 1399 1399 1399 1399 1400 1401 1403 1404 1406 1408 1409 1411 1412 1413 1414 1415 1417 1418 1419 1420 1421 1422 1423 1423 1423 1423 1423 1423 1424 1424 1424 1424 1424 1423 1423 1422 1422 1421 1421 1420 1420 1420 1419
1395 1394 1394 1394 1393 1392 1392 1392 1392 1392 1393 1393 1393 1393 1392 1392 1392 1392 1391 1391 1392 1392 1393 1393 1394 1394 1394 1394 1394 1395 1396 1398 1399 1401 1403 1404 1406 1408 1409 1410 1411 1413 1414 1416 1417 1418 1419 1419 1420 1420 1420 1420 1420 1420 1421 1421 1421 1421 1421 1420 1420 1419 1419 1418 1418 1417 1417 1417 1416
1394 1392 1391 1390 1389 1389 1389 1389 1389 1390 1391 1391 1391 1390 1390 1389 1389 1389 1388 1389 1389 1389 1389 1389 1390 1390 1390 1390 1390 1391 1393 1394 1396 1398 1400 1402 1404 1405 1406 1408 1409 1411 1412 1414 1415 1415 1416 1417 1418 1418 1418 1418 1417 1417 1418 1418 1418 1418 1418 1418 1417 1416 1416 1415 1415 1415 1414 1414 1414
1391 1390 1389 1388 1386 1385 1384 1384 1385 1386 1387 1387 1387 1387 1386 1386 1385 1385 1385 1385 1385 1385 1386 1386 1387 1387 1387 1387 1388 1389 1390 1392 1394 1395 1397 1399 1401 1403 1404 1406 1407 1409 1410 1411 1412 1413 1414 1415 1415 1416 1416 1415 1415 1415 1415 1415 1415 1415 1415 1415 1414 1414 1413 1413 1413 1412 1412 1412 1411
1389 1388 1387 1385 1384 1383 1382 1381 1381 1381 1381 1382 1382 1382 1382 1381 1381 1381 1381 1381 1382 1382 1383 1384 1384 1384 1384 1385 1386 1387 1388 1389 1391 1393 1394 1396 1399 1400 1402 1404 1405 1407 1408 1409 1410 1411 1412 1412 1413 1413 1414 1414 1413 1413 1413 1413 1413 1413 1413 1412 1412 1411 1411 1411 1410 1410 1409 1409 1409
1387 1386 1385 1384 1382 1381 1380 1379 1379 1378 1378 1377 1377 1377 1377 1377 1377 1377 1378 1378 1379 1380 1380 1381 1381 1381 1382 1383 1384 1385 1386 1387 1389 1390 1392 1394 1397 1399 1401 1402 1404 1404 1406 1407 1408 1409 1409 1410 1410 1411 1411 1411 1411 1411 1410 1410 1410 1410 1410 1409 1409 1409 1409 1408 1408 1408 1407 1407 1407
1386 1385 1384 1382 1381 1380 1379 1379 1378 1377 1376 1375 1375 1374 1374 1374 1374 1374 1375 1375 1376 1377 1378 1378 1379 1379 1380 1381 1382 1383 1384 1385 1387 1389 1391 1393 1395 1397 1399 1400 1401 1402 1404 1405 1406 1406 1407 1407 1408 1408 1409 1409 1409 1408 1408 1408 1408 1408 1407 1407 1407 1406 1406 1406 1405 1405 1405 1405 1405
1385 1384 1383 1382 1380 1379 1379 1378 1377 1376 1375 1374 1373 1373 1372 1372 1372 1372 1372 1373 1374 1374 1375 1375 1376 1377 1377 1378 1379 1380 1381 1383 1384 1387 1389 1391 1393 1395 1396 1398 1399 1400 1401 1403 1403 1404 1404 1404 1405 1406 1406 1406 1406 1406 1406 1406 1406 1405 1405 1404 1404 1404 1404 1404 1403 1403 1403 1403 1402
1384 1383 1382 1381 1380 1379 1378 1377 1376 1375 1374 1374 1373 1371 1370 1370 1369 1369 1370 1370 1371 1371 1371 1372 1373 1373 1374 1375 1376 1377 1378 1380 1382 1384 1386 1388 1390 1392 1393 1394 1396 1397 1399 1400 1400 1401 1401 1402 1403 1403 1404 1404 1404 1403 1403 1404 1403 1403 1402 1402 1402 1401 1401 1401 1401 1401 1400 1400 1400
1382 1381 1380 1379 1379 1378 1377 1376 1375 1374 1373 1373 1372 1371 1369 1368 1368 1368 1368 1368 1368 1368 1368 1368 1369 1369 1370 1370 1371 1373 1374 1376 1378 1380 1382 1384 1386 1388 1389 1391 1393 1394 1396 1397 1398 1398 1399 1399 1400 1401 1401 1401 1401 1401 1401 1401 1401 1400 1400 1400 1399 1399 1399 1399 1399 1398 1398 1398 1397
1380 1379 1378 1377 1376 1376 1375 1374 1373 1372 1372 1371 1371 1370 1369 1367 1366 1366 1365 1365 1365 1365 1364 1364 1365 1365 1365 1366 1367 1368 1370 1372 1374 1376 1378 1380 1382 1384 1386 1388 1389 1391 1392 1394 1394 1395 1396 1397 1397 1398 1398 1398 1398 1398 1398 1399 1398 1398 1398 1397 1397 1397 1397 1397 1396 1396 1395 1395 1395
1377 1376 1375 1375 1374 1373 1372 1371 1370 1370 1369 1369 1369 1368 1367 1366 1364 1363 1363 1362 1361 1361 1361 1361 1361 1361 1361 1362 1363 1364 1366 1368 1369 1371 1373 1375 1377 1379 1382 1384 1385 1387 1389 1391 1392 1392 1393 1394 1394 1395 1395 1395 1395 1396 1396 1396 1396 1396 1395 1395 1395 1394 1394 1394 1394 1394 1393 1393 1393
1374 1374 1373 1372 1371 1370 1369 1369 1368 1367 1366 1366 1366 1365 1364 1363 1362 1361 1359 1359 1358 1358 1357 1357 1357 1357 1358 1359 1359 1360 1362 1363 1365 1367 1369 1370 1373 1375 1378 1380 1382 1384 1386 1388 1389 1389 1390 1391 1392 1392 1393 1393 1393 1393 1393 1394 1394 1393 1393 1393 1392 1392 1392 1392 1391 1391 1391 1390 1390
1372 1371 1370 1369 1368 1368 1367 1365 1365 1364 1364 1364 1363 1362 1362 1361 1359 1358 1357 1356 1355 1354 1354 1353 1353 1354 1354 1355 1355 1356 1357 1359 1360 1362 1364 1366 1369 1372 1374 1377 1379 1381 1383 1385 1386 1387 1388 1388 1389 1389 1390 1390 1390 1390 1391 1391 1391 1391 1390 1390 1390 1390 1389 1389 1389 1389 1388 1388 1388
1370 1369 1368 1367 1366 1365 1364 1363 1362 1362 1361 1361 1360 1359 1359 1358 1356 1355 1354 1353 1352 1351 1350 1350 1350 1350 1350 1351 1351 1352 1353 1354 1356 1358 1361 1363 1366 1369 1371 1374 1376 1378 1380 1381 1383 1384 1384 1385 1386 1387 1387 1387 1388 1388 1388 1389 1388 1388 1388 1388 1388 1387 1387 1387 1386 1386 1386 1386 1385
Wind_Speed
40 39 39 39 39 39 39 38 39 39 39 38 38 37 37 38 39 39 40 41 42 43 43 43 42 41 40 38 37 36 34 34 33 32 31 30 30 30 30 29 29 28 28 27 27 26 26 26 25 25 25 24 24 24 23 23 22 22 23 23 24 24 24 24 24 24 24 24 24
41 40 40 40 40 40 40 40 39 39 39 38 37 37 36 37 37 38 39 40 41 41 42 42 41 41 40 38 37 35 34 33 33 32 32 31 31 31 30 30 29 28 28 27 27 27 26 26 25 25 25 25 24 24 24 23 22 23 23 23 24 24 25 25 25 24 24 24 24
42 42 42 42 42 41 41 40 39 38 37 37 36 36 36 36 36 37 38 39 40 40 41 42 41 41 40 38 37 35 34 34 33 33 32 32 32 31 30 30 29 29 28 28 27 27 26 26 26 25 25 25 25 24 24 23 23 23 23 24 24 25 25 25 25 24 24 24 24
44 44 43 43 42 41 41 40 39 37 37 37 37 36 36 36 36 37 38 39 39 41 41 42 41 41 40 39 37 36 35 34 34 33 33 33 32 31 31 30 29 29 29 28 28 27 26 26 26 26 25 25 25 24 24 23 23 23 24 24 24 25 25 25 25 25 24 24 24
46 46 45 44 43 42 41 41 40 40 39 39 38 38 37 36 37 37 38 39 40 41 41 41 41 41 40 39 38 36 35 35 34 34 34 33 33 32 31 30 30 29 29 28 28 27 27 26 26 26 26 25 25 25 24 24 23 24 24 24 25 25 25 25 25 25 25 24 24
48 48 47 46 45 44 44 43 43 42 41 41 40 39 38 37 37 38 38 39 40 40 40 41 41 42 41 40 39 37 36 35 35 35 35 34 33 32 31 30 30 29 29 29 28 28 27 27 26 26 26 25 25 25 24 24 24 24 24 25 25 25 26 26 25 25 25 24 24
48 49 48 48 47 46 46 45 45 44 43 42 41 40 38 37 37 38 38 39 39 40 41 42 42 42 42 41 39 38 37 36 36 36 35 34 33 32 31 31 30 29 29 29 28 28 28 27 27 26 26 26 26 25 25 24 24 24 24 25 25 26 26 26 26 25 25 24 24
47 49 49 49 48 47 47 46 45 45 44 43 42 40 39 38 37 37 38 39 40 41 41 42 42 43 42 41 39 38 37 37 37 36 35 34 33 32 31 31 30 30 29 29 29 28 28 28 27 27 26 26 26 25 25 24 24 24 25 25 26 26 26 26 26 25 25 24 24
46 47 48 48 49 48 47 47 46 46 45 43 42 40 39 39 38 38 39 40 40 41 42 42 43 43 42 41 40 39 38 37 37 36 35 34 33 32 31 31 30 30 30 29 29 29 28 28 27 27 27 26 26 26 25 24 24 24 25 25 26 26 26 26 26 25 25 24 24
43 44 45 47 48 48 48 48 47 46 45 44 42 41 40 40 39 39 39 39 40 41 42 43 43 43 43 42 40 39 38 37 37 36 35 34 33 32 32 31 30 30 30 29 29 29 29 28 28 27 27 26 26 26 25 24 24 24 25 25 26 26 27 26 26 26 25 25 24
40 41 43 44 45 46 47 48 48 47 46 45 43 42 41 40 39 39 39 39 40 42 43 43 44 44 44 42 41 39 38 37 37 36 35 34 33 32 32 31 30 30 30 30 30 30 29 29 28 27 27 27 26 26 25 24 24 25 25 26 26 27 27 27 26 25 25 25 25
38 39 41 42 44 45 46 47 47 47 46 45 43 42 41 40 39 39 39 39 40 41 42 43 44 45 44 43 41 40 38 38 37 36 35 34 33 33 32 31 30 30 30 30 30 30 30 29 28 27 27 27 26 26 25 24 24 25 25 26 26 27 27 27 26 25 25 25 25
36 38 39 41 42 44 45 46 46 46 46 45 43 42 40 40 39 39 39 39 39 40 42 43 45 45 45 44 42 40 39 38 37 36 35 35 34 33 32 32 31 30 30 30 31 31 30 29 28 27 27 27 26 25 25 24 24 25 26 26 27 27 27 27 26 25 25 25 26
35 37 38 40 41 43 44 45 45 45 45 44 42 41 40 40 39 39 39 38 39 40 42 43 45 45 45 44 43 41 39 38 37 37 36 35 34 34 33 32 31 30 30 31 31 31 31 29 28 28 27 27 26 25 24 24 25 25 26 27 27 27 27 26 26 25 25 25 26
34 36 37 38 40 41 43 44 44 44 44 43 41 40 40 39 39 39 38 38 38 39 41 43 45 46 46 45 43 41 40 39 38 37 36 35 35 34 34 33 31 31 30 31 32 32 31 29 28 28 27 27 26 25 24 24 25 26 26 27 27 27 27 26 26 25 25 25 26
33 34 35 37 38 40 41 42 42 42 42 41 40 40 39 39 39 38 38 38 38 39 41 43 44 45 46 45 44 42 41 39 38 38 37 36 36 35 34 33 32 31 31 31 32 31 30 29 28 28 28 27 26 25 24 24 25 26 27 27 27 27 27 26 26 25 25 25 26
31 32 33 35 36 37 38 39 39 40 40 40 39 39 39 38 38 38 38 37 38 39 40 42 43 45 46 46 45 43 42 40 39 38 38 37 36 36 35 34 32 31 31 31 31 31 30 29 29 29 28 27 26 25 24 24 25 26 27 27 27 27 27 26 26 25 26 26 26
30 31 31 33 33 34 35 36 37 38 38 38 38 38 38 38 38 37 37 37 37 38 39 40 42 44 45 46 46 44 43 41 40 39 38 37 37 36 35 34 32 31 30 30 30 30 30 29 29 29 28 27 26 25 24 24 25 26 27 27 27 27 27 26 26 26 26 26 27
28 29 30 30 31 32 33 34 35 36 37 37 38 38 37 37 37 37 37 37 37 37 37 39 41 43 45 46 46 45 44 42 41 39 38 37 37 37 36 34 33 31 30 30 30 30 30 29 29 29 28 27 26 25 24 24 25 26 27 27 27 27 27 27 26 27 27 27 27
27 27 28 28 29 30 31 32 33 35 36 37 37 37 37 36 36 36 36 36 36 36 36 38 39 42 44 45 46 46 45 43 41 40 38 37 37 37 36 35 33 32 31 30 30 30 30 30 30 29 29 27 26 25 24 24 25 26 27 27 28 27 27 27 27 27 28 28 27
26 26 26 27 27 28 28 29 30 32 34 35 36 36 36 35 35 35 35 35 35 35 35 37 38 40 43 44 46 46 45 43 42 40 39 38 38 37 37 35 33 32 31 30 30 30 30 30 30 29 28 27 26 24 24 24 25 26 27 28 28 28 27 27 27 28 28 28 27
25 25 25 25 26 26 26 27 28 30 31 33 34 34 35 34 34 34 34 34 34 35 35 36 37 39 41 43 44 45 45 44 42 41 39 38 38 38 37 36 34 33 32 31 30 30 30 30 30 29 28 26 25 24 24 24 25 26 27 28 28 28 28 28 28 28 28 28 27
23 24 24 24 25 25 26 26 27 28 29 30 31 32 33 33 33 33 33 33 34 34 35 35 36 38 39 41 43 44 44 44 43 42 40 39 39 38 38 37 35 33 32 31 30 29 29 30 29 29 27 26 25 24 24 24 25 26 27 28 29 29 28 28 28 28 28 28 26
22 23 23 24 24 25 26 26 27 27 28 28 29 30 31 32 32 32 32 32 33 33 34 34 35 36 38 40 41 43 44 45 44 43 41 40 39 39 39 38 36 34 32 31 30 29 29 29 29 28 26 25 24 24 24 24 25 26 28 29 29 29 29 28 28 28 28 27 26
21 22 22 23 24 24 25 26 27 27 28 28 29 30 31 31 31 31 31 31 31 32 33 33 34 35 37 39 41 43 45 46 45 44 42 40 40 40 40 38 36 34 32 31 29 29 28 28 28 27 25 24 24 24 24 25 25 27 28 29 29 29 29 29 29 28 27 26 25
18 19 20 21 22 23 24 25 26 27 28 29 29 30 31 31 31 31 31 31 30 31 31 32 33 34 36 38 41 43 45 46 46 44 43 41 41 41 40 39 37 35 32 31 29 28 27 27 27 26 25 24 24 24 25 25 25 27 28 29 30 29 29 29 29 28 27 26 25
15 15 16 17 18 19 21 22 24 26 27 28 29 30 30 31 31 32 31 30 30 30 31 32 33 34 36 39 42 44 46 47 46 45 43 42 41 41 40 39 37 35 32 30 29 27 27 27 26 26 25 25 25 24 24 25 25 27 28 30 30 30 30 29 28 28 27 26 25
13 13 14 15 16 18 20 21 23 25 26 27 28 29 29 30 31 31 31 30 30 30 31 32 33 35 38 40 43 45 46 47 46 45 44 42 42 41 41 39 37 35 32 30 28 27 26 26 26 26 26 26 25 24 24 24 25 27 29 31 31 31 30 29 28 27 27 27 26
12 12 13 14 15 17 19 21 23 25 26 27 27 27 28 29 30 31 31 31 30 31 31 33 34 36 39 42 44 45 46 46 46 45 44 43 42 42 41 39 37 34 32 30 28 27 26 26 26 26 26 26 25 25 24 24 25 27 29 31 31 30 29 28 28 28 28 27 27
16 15 15 15 16 17 18 20 23 26 28 28 28 27 27 27 28 29 30 31 31 31 31 32 35 37 40 42 43 45 45 46 46 45 44 43 42 42 41 39 37 34 32 30 28 27 26 26 26 26 26 25 25 25 24 25 26 27 29 30 30 29 28 28 28 28 28 27 27
21 21 21 21 20 20 20 22 26 29 31 32 31 29 28 27 27 27 29 30 31 31 31 33 35 37 39 41 42 44 45 45 45 45 44 43 42 41 40 39 36 34 32 30 29 27 27 26 27 27 26 25 24 24 24 25 26 28 29 30 30 29 28 28 28 28 28 27 27
26 26 26 26 26 25 25 25 26 29 31 33 32 31 29 28 27 27 28 29 31 32 33 34 35 37 38 40 41 43 44 45 45 44 43 42 41 40 39 38 36 34 32 30 29 28 28 27 27 27 26 25 24 24 24 25 26 28 30 30 30 29 28 28 28 28 28 28 28
30 30 30 30 30 30 28 27 27 28 30 32 33 32 31 29 28 28 28 29 30 31 33 34 34 35 37 38 40 42 43 44 44 43 42 41 40 39 39 38 36 34 32 30 30 30 29 29 28 27 26 25 24 23 24 25 26 28 30 31 30 29 28 28 28 28 28 28 29
32 32 33 33 32 32 30 30 29 30 31 32 33 33 32 31 29 29 28 28 29 30 31 33 34 35 36 37 39 40 41 42 42 42 41 40 39 39 39 38 36 34 32 31 31 31 31 29 28 27 26 25 23 23 24 25 27 29 30 31 30 29 28 27 27 28 28 29 29
34 34 34 34 33 32 32 32 32 32 33 34 35 35 34 32 30 29 27 27 27 29 30 32 33 34 35 37 38 39 40 41 41 41 40 39 39 39 39 38 36 34 32 31 32 32 31 30 28 27 26 25 24 23 24 25 27 29 30 30 29 28 27 27 27 28 28 29 29
33 34 34 34 33 33 33 33 33 34 35 36 36 36 35 33 30 28 26 25 26 27 29 30 32 33 35 36 37 38 39 40 40 40 40 39 39 39 39 38 36 34 33 32 33 33 32 30 29 27 26 25 24 24 24 25 27 29 30 30 29 28 27 27 27 27 28 28 28
31 32 33 33 33 33 33 33 33 34 36 37 37 36 35 32 30 27 25 24 25 26 27 29 31 32 34 35 36 37 38 39 39 39 39 39 39 39 39 38 37 35 34 33 33 33 32 30 29 28 27 25 24 24 24 25 27 28 29 29 29 28 27 27 27 27 27 27 27
28 29 30 31 32 32 32 32 33 34 35 36 36 36 34 32 29 27 25 24 25 25 26 27 29 31 32 33 35 36 36 37 38 39 39 40 40 39 39 38 37 36 34 34 33 33 32 31 29 28 27 26 25 24 24 26 27 28 29 29 28 28 27 26 26 26 26 26 25
28 28 29 30 31 32 32 33 33 33 33 33 34 33 32 30 28 27 25 25 25 25 25 26 28 29 30 32 33 34 35 36 38 39 39 40 40 39 38 38 37 36 35 34 33 33 32 31 30 28 27 25 25 24 25 26 27 28 29 28 28 27 27 26 25 25 25 25 24
28 29 29 30 31 32 33 33 33 32 32 31 31 30 30 29 28 27 26 25 25 25 26 26 27 28 29 31 32 34 35 36 37 38 39 39 39 39 38 38 37 36 35 34 34 33 32 31 30 28 27 25 24 24 25 26 27 28 28 28 27 27 26 26 25 25 25 25 24
29 29 30 30 31 32 32 33 32 32 31 30 29 28 28 28 27 27 27 26 26 26 26 26 27 28 29 30 32 33 34 35 36 37 38 39 39 38 38 38 37 37 35 34 34 33 32 31 30 28 27 25 25 25 25 26 27 28 28 27 27 26 26 25 25 25 25 25 24
Wind_Direction
267 266 265 265 264 264 264 265 265 264 263 263 262 261 260 258 257 256 254 252 251 249 249 249 250 251 253 254 254 255 254 254 252 252 251 251 251 252 254 256 258 260 262 263 263 263 263 264 264 265 267 269 270 271 272 273 274 275 276 277 278 279 279 279 279 280 281 282 283
266 265 265 264 264 264 264 264 264 263 263 262 262 261 260 259 257 256 254 252 251 250 249 249 249 250 251 252 253 253 252 251 250 250 249 249 250 251 253 255 257 259 261 262 262 263 263 263 264 265 267 269 270 271 272 273 274 274 275 276 277 277 278 278 279 280 281 282 282
265 264 264 263 263 262 262 262 263 263 263 263 262 261 260 259 257 255 254 252 251 250 248 248 248 249 250 251 252 251 250 249 248 248 247 248 249 251 253 255 257 258 260 261 262 262 263 263 264 265 267 268 270 271 272 273 273 274 274 275 276 276 277 278 279 280 281 281 282
267 265 263 262 261 261 261 262 263 263 264 264 263 262 261 259 257 255 254 252 250 248 247 247 247 248 249 250 250 250 249 248 247 246 246 247 249 251 252 254 256 257 259 260 261 262 263 263 263 265 266 268 270 271 272 272 272 273 273 275 275 276 276 278 279 279 280 281 282
268 267 265 264 263 263 263 263 263 264 264 263 263 262 261 259 256 254 252 251 248 247 246 245 246 246 247 248 249 249 248 247 245 245 245 247 249 250 252 253 255 257 258 260 261 262 262 262 263 264 266 268 269 270 271 272 272 272 273 274 275 275 276 277 278 279 279 281 282
268 268 267 267 267 266 265 265 264 264 263 263 262 262 260 258 256 254 252 250 248 247 245 245 245 245 246 247 247 247 246 245 244 244 245 246 248 249 251 252 254 256 258 259 261 261 261 262 263 264 266 268 269 270 270 270 271 272 273 274 275 276 276 277 278 278 279 281 282
270 269 268 268 268 268 267 266 266 265 264 263 263 262 261 259 257 255 253 251 249 247 245 244 243 244 245 245 246 246 245 245 244 244 245 246 248 249 250 251 253 255 257 259 260 260 261 261 262 264 265 267 268 269 269 269 270 271 273 274 275 276 277 277 278 279 280 281 282
273 271 270 269 268 268 268 268 267 267 266 265 264 263 263 261 260 257 255 253 250 247 245 244 243 244 244 245 246 246 245 245 244 245 245 246 247 248 249 251 252 254 257 258 259 260 260 261 262 263 265 266 267 268 269 269 270 271 273 274 275 276 277 277 278 279 280 281 282
276 274 272 270 269 269 268 268 268 267 267 267 266 266 265 263 261 259 256 253 251 248 246 244 244 244 245 245 246 246 246 245 245 245 246 246 247 248 248 250 252 254 256 258 259 260 260 261 262 263 264 266 267 268 269 269 270 271 273 274 275 276 277 278 279 280 281 282 282
279 277 275 273 271 270 269 269 268 268 268 268 268 267 265 264 262 259 257 254 251 249 247 245 244 244 244 245 246 246 246 246 246 246 246 246 246 247 248 249 251 253 256 258 259 259 260 260 261 263 264 265 266 267 268 269 270 271 273 274 275 276 277 278 279 281 282 283 283
282 280 278 275 274 272 271 270 269 269 268 268 268 267 266 264 262 260 257 254 252 249 247 244 243 243 244 245 245 246 246 246 246 246 246 246 246 247 247 249 251 253 255 257 258 259 259 259 261 262 263 264 265 266 267 269 270 272 273 274 276 276 277 279 280 281 283 284 284
286 283 281 278 276 274 272 270 270 269 269 268 268 267 266 265 263 261 258 255 252 249 247 244 243 243 243 244 245 245 245 245 245 245 245 245 245 246 247 248 250 252 255 257 258 258 259 259 260 262 263 264 264 265 267 269 271 273 274 275 276 277 278 280 281 283 284 284 284
289 285 283 280 277 275 272 271 270 269 269 269 268 268 267 266 264 262 259 256 252 249 247 244 243 242 243 243 244 244 245 245 245 245 245 245 245 245 246 247 249 251 254 256 258 258 259 259 260 262 262 263 264 265 267 269 271 273 274 275 276 277 279 281 282 283 284 284 284
291 287 284 282 279 276 274 272 271 270 270 269 269 269 268 266 264 262 260 257 253 250 247 245 243 242 242 242 243 244 244 245 245 245 244 244 244 244 245 246 248 250 253 256 257 258 259 259 260 261 262 262 263 265 267 269 272 273 274 275 276 278 279 281 282 283 284 284 284
292 289 286 284 281 278 276 274 273 272 271 271 271 270 268 267 265 263 260 258 254 250 247 245 243 241 241 241 242 243 244 244 244 244 244 244 244 244 244 245 246 249 252 255 257 258 259 259 260 261 261 262 263 264 267 270 272 274 275 276 277 278 280 281 282 283 283 284 284
294 291 288 285 282 280 278 277 276 274 273 273 272 271 269 268 266 264 261 259 255 251 248 245 243 241 240 240 241 242 242 243 243 243 243 243 243 243 243 244 245 248 251 254 256 258 259 259 260 260 260 261 262 264 266 269 272 274 275 276 277 279 280 281 282 283 283 283 283
297 294 291 288 285 283 282 280 279 277 276 275 274 273 271 269 267 265 263 260 257 253 249 246 243 241 240 240 240 241 241 242 242 243 243 243 243 243 243 243 244 247 250 253 256 257 258 259 259 259 259 260 261 263 266 269 272 274 275 276 277 279 280 281 282 283 283 283 283
301 298 295 292 290 288 287 285 282 280 279 278 276 275 273 271 269 267 265 262 259 255 251 247 244 242 240 240 240 240 241 242 242 243 243 243 243 243 243 243 244 246 249 252 255 257 257 258 258 258 259 260 261 263 266 269 272 274 275 276 277 279 280 281 282 282 283 283 282
304 302 299 298 296 295 292 289 286 284 282 280 279 277 275 273 271 269 267 264 261 257 253 249 245 242 240 239 239 240 241 242 243 244 244 244 244 243 243 242 242 244 248 251 253 255 256 257 257 257 258 259 261 263 266 269 272 274 275 276 277 278 279 280 281 282 282 282 282
308 307 305 304 302 300 297 294 291 288 285 283 281 279 277 275 273 271 269 266 263 260 256 251 247 243 241 239 239 240 241 242 243 244 245 245 244 243 242 241 241 243 246 249 252 254 255 256 256 257 257 259 261 263 266 268 271 273 275 276 277 278 279 280 280 281 281 282 281
312 311 310 308 306 303 301 298 295 292 288 285 282 280 278 277 274 272 270 268 265 262 258 253 249 245 242 240 239 239 240 242 243 244 245 244 244 243 241 240 240 242 245 248 250 252 254 255 256 256 257 259 261 264 266 268 270 273 274 276 277 277 278 279 280 281 281 282 281
315 314 312 311 309 307 305 302 299 295 291 287 284 282 280 278 276 274 271 269 266 263 259 255 251 246 243 240 239 239 240 241 243 244 244 244 243 242 241 239 239 240 243 246 249 251 253 254 255 256 257 259 262 264 266 268 270 272 274 275 276 277 278 279 280 281 282 282 280
316 314 313 312 311 309 307 304 301 298 294 291 287 284 282 280 278 275 272 269 266 263 260 257 253 248 245 242 240 239 240 241 242 244 244 244 243 241 239 237 237 239 242 245 248 250 252 253 254 255 257 260 263 265 267 268 270 272 274 275 275 276 277 279 280 281 282 281 278
316 314 313 312 311 310 308 306 303 301 298 294 291 287 284 281 279 276 273 270 267 264 261 258 254 250 247 243 241 239 239 240 241 242 243 243 242 240 238 236 236 237 241 244 246 249 251 252 253 255 257 260 263 266 267 268 270 272 273 275 276 277 278 279 280 280 280 278 274
319 317 315 314 313 311 310 308 306 304 302 299 295 291 286 283 280 277 274 271 268 266 263 259 256 252 248 244 241 239 238 239 240 241 242 242 241 239 237 235 235 237 240 243 245 248 250 251 252 254 257 259 262 265 266 268 270 272 274 275 276 277 278 279 279 278 277 275 271
325 323 322 321 320 318 316 315 313 310 307 304 299 294 290 286 282 278 275 272 269 266 263 260 256 252 248 244 241 238 237 237 238 240 241 241 240 239 237 235 234 236 239 241 244 246 248 250 251 253 255 258 261 263 265 267 270 272 273 274 275 275 276 277 277 277 277 276 274
338 338 338 338 337 336 335 332 328 323 318 312 306 300 295 290 286 281 277 273 270 266 263 259 255 251 247 243 240 238 237 237 237 238 239 240 239 238 236 235 234 236 238 240 243 245 247 249 251 253 255 257 259 261 264 266 268 270 272 272 273 274 275 277 279 281 282 281 280
351 353 354 354 355 355 353 348 343 338 332 325 317 309 301 294 288 283 278 274 270 265 261 257 253 249 246 243 241 239 237 237 237 237 238 239 239 238 236 234 234 236 237 239 241 243 245 247 250 253 256 258 260 262 264 266 268 270 271 273 274 275 278 281 284 285 285 285 284
344 346 348 351 353 352 348 344 340 336 332 327 321 314 306 298 291 285 279 274 269 264 259 254 251 248 245 243 241 239 238 237 237 237 238 238 238 237 236 234 234 235 237 238 240 241 243 245 247 251 255 259 262 264 266 268 270 272 273 274 276 278 281 284 285 286 286 285 285
325 326 328 331 333 332 329 324 318 314 311 310 310 308 305 300 293 287 281 275 269 264 259 254 251 249 247 245 243 241 240 238 237 237 237 237 237 237 236 234 234 235 236 237 239 240 241 243 246 249 253 257 261 264 267 269 272 273 274 276 277 279 281 283 284 284 284 284 284
316 316 316 317 317 316 313 309 304 299 296 294 294 295 296 295 292 287 282 277 271 266 261 257 254 251 249 247 245 244 242 240 239 238 237 237 237 237 236 234 234 234 235 237 238 239 240 242 245 248 252 256 259 262 266 270 272 274 275 276 277 278 280 281 282 283 284 283 282
314 313 313 313 313 311 308 304 299 295 292 289 287 286 287 287 286 284 281 278 274 269 265 261 258 255 253 251 249 246 244 242 240 239 238 237 237 238 237 235 234 233 234 236 238 239 240 242 245 248 252 255 257 261 265 269 272 274 274 275 276 277 279 281 283 284 284 283 280
314 313 313 313 313 311 308 303 298 294 291 289 287 285 284 284 284 283 281 278 275 272 268 265 263 260 257 255 252 250 247 245 243 241 239 238 238 238 237 235 233 232 233 236 238 240 241 242 245 248 252 254 256 260 263 267 270 272 273 274 276 278 280 282 283 283 283 282 281
312 312 312 313 313 311 308 303 298 293 290 289 288 287 285 285 285 285 284 282 279 275 272 269 266 264 261 258 255 253 250 248 245 243 240 239 238 238 237 235 233 232 233 235 239 241 242 243 245 248 251 253 255 258 262 266 269 271 273 274 276 278 280 281 282 282 281 280 280
311 310 310 311 310 309 306 302 298 293 290 289 289 289 289 288 288 289 289 286 283 278 275 272 269 266 263 260 256 254 251 249 246 244 241 239 238 237 236 235 232 231 232 236 240 243 243 244 246 248 250 251 253 256 260 264 268 270 272 274 276 278 280 281 281 280 280 280 279
311 310 309 309 308 307 304 301 298 294 291 290 291 292 292 292 293 293 292 289 284 280 276 273 270 267 264 260 257 254 251 248 246 243 240 238 237 236 235 234 232 231 232 236 240 243 244 245 246 247 248 250 252 255 259 263 267 270 272 274 276 277 279 280 281 280 280 280 279
312 311 309 308 307 306 304 301 298 295 293 292 293 294 295 296 297 296 293 288 284 281 279 275 272 268 265 261 258 255 251 248 245 242 239 237 235 235 234 232 231 230 232 236 240 243 244 245 245 246 247 248 251 254 258 263 267 270 272 274 275 277 279 280 281 281 281 281 280
312 309 308 307 306 305 303 301 298 296 295 295 295 295 296 297 297 296 292 287 284 282 280 277 273 270 267 263 260 257 253 249 245 241 238 235 234 233 232 231 230 229 232 235 240 243 244 245 245 245 246 247 250 253 258 262 266 270 272 274 276 277 279 280 281 282 283 282 281
310 308 307 305 304 303 302 301 299 298 298 297 297 296 296 296 295 293 290 286 283 281 279 277 274 271 267 264 261 258 254 249 245 240 237 234 233 232 231 230 229 229 231 235 239 242 244 244 245 245 246 247 249 253 257 262 266 270 272 274 276 277 279 281 282 284 284 283 281
311 309 307 306 305 303 302 301 301 301 300 299 297 296 295 294 292 289 286 283 280 278 276 274 271 269 265 262 260 257 254 249 245 240 236 233 232 231 229 228 228 228 231 234 238 241 243 244 245 245 245 246 248 252 256 261 266 269 272 274 276 277 280 282 283 284 283 282 280
314 312 310 308 306 305 303 302 302 302 301 299 296 294 292 290 287 284 281 279 277 275 273 270 268 265 263 260 258 256 253 250 245 240 236 233 231 229 228 227 226 227 230 233 237 240 243 244 245 244 244 245 247 251 256 261 265 269 271 273 275 277 279 281 282 282 282 282 280